Location: Arcones
(41.1182°N, 3.7238°W)
Time: 04:26:02
(UTC+00:00)

Cosmos 2082 - Pass Details

Date: 11 December 2025
Orbit: 831 x 855 km, 71.0° (Epoch: 13 January)

Event Time Altitude Azimuth Distance (km) Brightness Sun altitude
Rises 19:24:42 0° 334° (NNW) 3,425 7.1 -29.0°
Reaches altitude 10° 19:27:09 10° 333° (NNW) 2,488 6.3 -29.4°
Enters shadow 19:32:24 70° 289° (WNW) 910 3.9 -30.4°
